This is the latest recevied weather packets stored in our database for station/object F4GQK-13. If no packets are shown the sender has not sent any weather packets the latest 10 day(s).
| Time | Temp. | Humidity | Pressure | Rain* | Wind** | Luminosity | Snow |
|---|---|---|---|---|---|---|---|
| 1777544404 | 18.89° C | 42% | 1020.9 hPa | 0 mm | - | 689 W/m² | - |
| 1777544105 | 18.89° C | 43% | 1020.7 hPa | 0 mm | - | 683 W/m² | - |
| 1777543805 | 18.33° C | 43% | 1020.7 hPa | 0 mm | - | 674 W/m² | - |
| 1777543505 | 18.33° C | 43% | 1020.6 hPa | 0 mm | - | 666 W/m² | - |
| 1777543204 | 18.33° C | 45% | 1020.9 hPa | 0 mm | - | 660 W/m² | - |
| 1777542905 | 17.78° C | 45% | 1020.9 hPa | 0 mm | - | 650 W/m² | - |
| 1777542605 | 17.78° C | 45% | 1020.8 hPa | 0 mm | - | 640 W/m² | - |
| 1777542304 | 17.22° C | 45% | 1020.9 hPa | 0 mm | - | 631 W/m² | - |
| 1777542005 | 17.78° C | 44% | 1020.8 hPa | 0 mm | - | 622 W/m² | - |
| 1777541705 | 17.78° C | 46% | 1021 hPa | 0 mm | - | 611 W/m² | - |
| 1777541405 | 17.22° C | 46% | 1020.9 hPa | 0 mm | - | 603 W/m² | - |
| 1777541105 | 16.67° C | 45% | 1020.9 hPa | 0 mm | - | 592 W/m² | - |
| 1777540805 | 16.67° C | 45% | 1020.9 hPa | 0 mm | - | 580 W/m² | - |
| 1777540505 | 16.67° C | 45% | 1021 hPa | 0 mm | - | 570 W/m² | - |
| 1777540205 | 16.67° C | 47% | 1021 hPa | 0 mm | - | 558 W/m² | - |
| 1777539904 | 16.11° C | 45% | 1021 hPa | 0 mm | - | 546 W/m² | - |
| 1777539605 | 16.67° C | 45% | 1021 hPa | 0 mm | - | 534 W/m² | - |
| 1777539305 | 16.11° C | 45% | 1021.1 hPa | 0 mm | - | 523 W/m² | - |
| 1777539004 | 16.11° C | 46% | 1021.1 hPa | 0 mm | - | 510 W/m² | - |
| 1777538705 | 16.11° C | 46% | 1020.9 hPa | 0 mm | - | 495 W/m² | - |
| 1777538405 | 15.56° C | 47% | 1021 hPa | 0 mm | - | 485 W/m² | - |
| 1777538103 | 15.56° C | 47% | 1021.1 hPa | 0 mm | - | 473 W/m² | - |
| 1777537805 | 15.56° C | 48% | 1020.9 hPa | 0 mm | - | 459 W/m² | - |
| 1777537505 | 15° C | 47% | 1021.2 hPa | 0 mm | - | 446 W/m² | - |
| 1777537205 | 15° C | 47% | 1021 hPa | 0 mm | - | 432 W/m² | - |
* Rain latest hour (hover to see other rain measurements)
** Current wind speed in m/s (hover to see current wind gust speed)